Tracking 22989 objects as of 8-May-2021
HD Live streaming from Space Station
objects crossing your sky now

THORAD AGENA D DEB

Track THORAD AGENA D DEB now!
10-day predictions


NORAD ID: 4951
Int'l Code: 1970-025GM
Perigee: 1,028.6 km
Apogee: 1,056.1 km
Inclination: 100.0 °
Period: 105.9 minutes
Semi major axis: 7413 km
RCS: 0.071 m2 (small)
Launch date: April 8, 1970
Source: United States (US)
Launch site: AIR FORCE WESTERN TEST RANGE (AFWTR)

Note: This is SATELLITE DEBRIS
aabbcc
Your satellite tracking list
Your tracking list is empty




NASA's NSSDC Master Catalog

Two Line Element Set (TLE):
1 04951U 70025GM  21127.72671451  .00000037  00000-0  11281-3 0  9995
2 04951 100.0277  40.4912 0018528  97.5726 317.5750 13.60140859529010
Source of the keplerian elements: AFSPC